Location: Lafig�re
(44.4503°N, 4.0357°E)
Time: 16:02:55
(UTC+00:00)

Cosmos 2285 Rocket - Pass Details

Date: 24 September 2020
Orbit: 970 x 1000 km, 74.0° (Epoch: 25 October)

Event Time Altitude Azimuth Distance (km) Brightness Sun altitude
Rises 18:47:45 0° 189° (S) 3,651 7.0 -13.4°
Reaches altitude 10° 18:50:17 10° 186° (S) 2,710 6.3 -13.8°
Maximum altitude 18:56:29 65° 106° (ESE) 1,070 3.9 -14.9°
Drops below altitude 10° 19:02:46 10° 26° (NNE) 2,746 6.2 -16.0°
Sets 19:05:20 0° 24° (NNE) 3,703 6.9 -16.4°
